Location: Altavilla Irpina
(41.0000°N, 14.7833°E)
Time: 10:42:42
(UTC+00:00)

SL-24 R/B - Pass Details

Date: 19 May 2025
Orbit: 595 x 1187 km, 97.8° (Epoch: 23 June)

Event Time Altitude Azimuth Distance (km) Brightness Sun altitude
Exits shadow 20:30:51 48° 177° (S) 796 4.7 -20.2°
Maximum altitude 20:31:59 82° 256° (WSW) 612 4.4 -20.3°
Drops below altitude 10° 20:36:07 10° 346° (NNW) 1,940 8.1 -20.8°
Sets 20:38:17 0° 347° (NNW) 2,861 9.2 -21.0°
